Weather History for Oakdale, LA

Change the Weather History Date:

Monday, December 16, 2013

  Actual Average (KPOE) Record (KPOE)
Temperature  
Mean Temperature 44 °F -  
Max Temperature 61 °F 58 °F 78 °F (2001)
Min Temperature 27 °F 38 °F 28 °F (1999)
Degree Days  
Heating Degree Days 21    
Moisture  
Dew Point 33 °F    
Average Humidity 79    
Maximum Humidity 98    
Minimum Humidity 36    
Precipitation  
Precipitation 0.00 in - - ()
Sea Level Pressure  
Sea Level Pressure 30.31 in    
Wind  
Wind Speed 0 mph (SSW)    
Max Wind Speed 6 mph    
Max Gust Speed -    
Visibility 10 miles    
Events      
Averages and records for this station are not official NWS values.
T = Trace of Precipitation, MM = Missing Value Source: NWS Daily Summary

Daily Weather History Graph

Daily Weather History Graph

Search for Another Location

Airport:

Trip Planner

Search our weather history database for the weather conditions in past years. The results will help you decide how hot, cold, wet, or windy it might be!

Date:

Astronomy

Dec. 16, 2013 Rise Set
Actual Time 7:01 AM CST 5:11 PM CST
Civil Twilight 6:35 AM CST 5:38 PM CST
Nautical Twilight 6:04 AM CST 6:08 PM CST
Astronomical Twilight 5:35 AM CST 6:37 PM CST
Moon 4:58 PM CST (12/16) 6:14 AM CST (12/16)
Length of Visible Light 11h 03m
Length of Day
10h 09m
Full, 100% of the Moon is Illuminated
Dec 16
Full
Dec 17
Full
Dec 25
Last Quarter
Jan 1
New
Jan 7
First Quarter

Hourly Weather History & Observations

Time (CST) Temp. Dew Point Humidity Pressure Visibility Wind Dir Wind Speed Gust Speed Precip Events Conditions
12:15 AM 30.2 °F 29.1 °F 96% 30.32 in 10.0 mi Calm Calm - N/A   Clear
12:35 AM 30.6 °F 29.1 °F 94% 30.32 in 10.0 mi Calm Calm - N/A   Clear
12:55 AM 30.2 °F 28.9 °F 95% 30.33 in 10.0 mi Calm Calm - N/A   Clear
1:15 AM 30.0 °F 28.8 °F 95% 30.33 in 7.0 mi Calm Calm - N/A   Clear
1:35 AM 29.7 °F 28.4 °F 95% 30.33 in 10.0 mi Calm Calm - N/A   Clear
1:55 AM 29.7 °F 28.4 °F 95% 30.33 in 10.0 mi Calm Calm - N/A   Clear
2:15 AM 28.6 °F 27.1 °F 94% 30.33 in 10.0 mi Calm Calm - N/A   Clear
2:35 AM 29.3 °F 27.9 °F 94% 30.33 in 10.0 mi Calm Calm - N/A   Clear
2:55 AM 29.1 °F 27.5 °F 94% 30.33 in 10.0 mi Calm Calm - N/A   Clear
3:15 AM 29.1 °F 27.5 °F 94% 30.33 in 10.0 mi Calm Calm - N/A   Clear
3:35 AM 28.0 °F 26.6 °F 94% 30.32 in 10.0 mi Calm Calm - N/A   Clear
3:55 AM 28.4 °F 27.1 °F 95% 30.31 in 10.0 mi Calm Calm - N/A   Clear
4:15 AM 28.4 °F 27.1 °F 95% 30.32 in 10.0 mi Calm Calm - N/A   Clear
4:35 AM 28.4 °F 27.1 °F 95% 30.32 in 10.0 mi Calm Calm - N/A   Clear
4:55 AM 28.4 °F 27.0 °F 94% 30.32 in 10.0 mi Calm Calm - N/A   Clear
5:15 AM 27.9 °F 26.6 °F 95% 30.32 in 10.0 mi Calm Calm - N/A   Clear
5:35 AM 27.5 °F 26.2 °F 95% 30.32 in 10.0 mi Calm Calm - N/A   Clear
5:55 AM 27.9 °F 26.4 °F 94% 30.32 in 10.0 mi Calm Calm - N/A   Clear
6:15 AM 27.7 °F 26.2 °F 94% 30.33 in 10.0 mi Calm Calm - N/A   Clear
6:35 AM 27.5 °F 26.1 °F 94% 30.33 in 10.0 mi Calm Calm - N/A   Clear
6:55 AM 27.5 °F 25.9 °F 94% 30.34 in 10.0 mi Calm Calm - N/A   Clear
7:15 AM 27.5 °F 25.9 °F 94% 30.34 in 10.0 mi Calm Calm - N/A   Clear
7:35 AM 28.8 °F 27.1 °F 94% 30.34 in 10.0 mi Calm Calm - N/A   Clear
7:55 AM 30.7 °F 29.1 °F 94% 30.35 in 10.0 mi Calm Calm - N/A   Clear
8:15 AM 32.0 °F 30.6 °F 94% 30.36 in 10.0 mi Calm Calm - N/A   Clear
8:35 AM 35.1 °F 33.3 °F 93% 30.35 in 10.0 mi Calm Calm - N/A   Clear
8:55 AM 38.8 °F 36.3 °F 91% 30.36 in 7.0 mi Calm Calm - N/A   Clear
9:15 AM 41.9 °F 37.8 °F 85% 30.36 in 10.0 mi Calm Calm - N/A   Clear
9:35 AM 44.6 °F 38.5 °F 79% 30.36 in 10.0 mi Calm Calm - N/A   Clear
9:55 AM 47.5 °F 39.0 °F 72% 30.36 in 10.0 mi Calm Calm - N/A   Clear
10:15 AM 48.7 °F 37.6 °F 65% 30.36 in 10.0 mi Calm Calm - N/A   Clear
10:35 AM 51.1 °F 36.9 °F 58% 30.35 in 10.0 mi Calm Calm - N/A   Clear
10:55 AM 53.1 °F 35.6 °F 52% 30.34 in 10.0 mi Calm Calm - N/A   Clear
11:15 AM 54.3 °F 36.1 °F 50% 30.34 in 10.0 mi Calm Calm - N/A   Clear
11:35 AM 55.8 °F 36.3 °F 48% 30.33 in 10.0 mi Calm Calm - N/A   Clear
11:55 AM 56.7 °F 33.1 °F 41% 30.32 in 10.0 mi Calm Calm - N/A   Clear
12:15 PM 58.1 °F 32.9 °F 39% 30.31 in 10.0 mi South 3.5 mph - N/A   Clear
12:35 PM 58.5 °F 35.1 °F 42% 30.29 in 10.0 mi WSW 5.8 mph - N/A   Clear
12:55 PM 59.2 °F 34.3 °F 39% 30.28 in 10.0 mi Calm Calm - N/A   Clear
1:15 PM 60.1 °F 34.0 °F 38% 30.27 in 10.0 mi SW 3.5 mph - N/A   Clear
1:35 PM 60.1 °F 33.1 °F 36% 30.26 in 10.0 mi SSE 5.8 mph - N/A   Clear
1:55 PM 61.0 °F 34.9 °F 38% 30.26 in 10.0 mi SSW 4.6 mph - N/A   Clear
2:15 PM 61.0 °F 34.9 °F 38% 30.26 in 10.0 mi Calm Calm - N/A   Clear
2:35 PM 60.8 °F 35.1 °F 38% 30.25 in 10.0 mi SSW 5.8 mph - N/A   Clear
2:55 PM 61.0 °F 34.9 °F 38% 30.25 in 10.0 mi South 4.6 mph - N/A   Clear
3:15 PM 61.0 °F 35.4 °F 38% 30.25 in 10.0 mi South 4.6 mph - N/A   Clear
3:35 PM 60.8 °F 35.6 °F 39% 30.25 in 10.0 mi SSE 3.5 mph - N/A   Clear
3:55 PM 60.1 °F 36.1 °F 41% 30.25 in 10.0 mi South 3.5 mph - N/A   Clear
4:15 PM 59.4 °F 36.5 °F 43% 30.26 in 10.0 mi Calm Calm - N/A   Clear
4:35 PM 57.6 °F 38.8 °F 50% 30.26 in 10.0 mi Calm Calm - N/A   Clear
4:55 PM 54.0 °F 41.7 °F 63% 30.26 in 10.0 mi Calm Calm - N/A   Clear
5:15 PM 48.2 °F 42.4 °F 80% 30.26 in 10.0 mi Calm Calm - N/A   Clear
5:35 PM 45.0 °F 41.5 °F 88% 30.26 in 10.0 mi Calm Calm - N/A   Clear
5:55 PM 42.8 °F 40.3 °F 91% 30.26 in 10.0 mi Calm Calm - N/A   Clear
6:15 PM 40.5 °F 38.7 °F 93% 30.27 in 10.0 mi Calm Calm - N/A   Clear
6:35 PM 38.8 °F 37.2 °F 94% 30.28 in 10.0 mi Calm Calm - N/A   Clear
6:55 PM 37.8 °F 36.3 °F 95% 30.28 in 10.0 mi Calm Calm - N/A   Clear
7:15 PM 36.9 °F 35.6 °F 95% 30.28 in 10.0 mi Calm Calm - N/A   Clear
7:35 PM 36.5 °F 35.1 °F 95% 30.29 in 10.0 mi Calm Calm - N/A   Clear
7:55 PM 35.6 °F 34.2 °F 94% 30.30 in 10.0 mi Calm Calm - N/A   Clear
8:15 PM 34.9 °F 33.8 °F 96% 30.31 in 10.0 mi Calm Calm - N/A   Clear
8:35 PM 34.3 °F 33.1 °F 95% 30.31 in 10.0 mi Calm Calm - N/A   Clear
8:55 PM 33.8 °F 32.5 °F 95% 30.31 in 7.0 mi Calm Calm - N/A   Clear
9:15 PM 33.8 °F 32.5 °F 95% 30.31 in 7.0 mi Calm Calm - N/A   Clear
9:35 PM 33.1 °F 32.0 °F 96% 30.31 in 7.0 mi Calm Calm - N/A   Clear
9:55 PM 32.5 °F 32.0 °F 98% 30.31 in 7.0 mi Calm Calm - N/A   Clear
10:15 PM 32.5 °F 31.8 °F 97% 30.31 in 7.0 mi Calm Calm - N/A   Clear
10:35 PM 32.0 °F 31.5 °F 98% 30.31 in 7.0 mi Calm Calm - N/A   Clear
10:55 PM 32.0 °F 31.3 °F 97% 30.31 in 7.0 mi Calm Calm - N/A   Clear
11:15 PM 32.0 °F 31.1 °F 96% 30.31 in 7.0 mi Calm Calm - N/A   Clear
11:55 PM 31.5 °F 30.2 °F 95% 30.29 in 7.0 mi Calm Calm - N/A   Clear